Tracking 30995 objects as of 7-Jul-2025
HD Live streaming from Space Station
objects crossing your sky now

COSMOS 2142

Track COSMOS 2142 now!
10-day predictions
COSMOS 2142 is classified as:


NORAD ID: 21230
Int'l Code: 1991-029A
Perigee: 965.7 km
Apogee: 1,023.8 km
Inclination: 83.0 °
Period: 104.9 minutes
Semi major axis: 7365 km
RCS: 2.0441 m2 (large)
Launch date: April 16, 1991
Source: Commonwealth of Independent States (former USSR) (CIS)
Launch site: PLESETSK MISSILE AND SPACE COMPLEX (PKMTR)
Your satellite tracking list
Your tracking list is empty




NASA's NSSDC Master Catalog

Two Line Element Set (TLE):
1 21230U 91029A   25187.34308444  .00000048  00000-0  34532-4 0  9995
2 21230  82.9566 133.8799 0039434  90.5423  24.0594 13.73340869714888
Source of the keplerian elements: AFSPC